Weather reports worldwide

Advertisment
Rostock-Warnemünde, Germany (10170): temperature & dewpoint: 24.10.2020 11:00:00 - 30.10.2020 11:00:00 (CET)Rostock-Warnemünde, Germany (10170): temperature 5cm & temperature -5cm: 24.10.2020 11:00:00 - 30.10.2020 11:00:00 (CET)Rostock-Warnemünde, Germany (10170): temperature -20cm & temperature -100cm: 24.10.2020 11:00:00 - 30.10.2020 11:00:00 (CET)Rostock-Warnemünde, Germany (10170): wind speed & gusts: 24.10.2020 11:00:00 - 30.10.2020 11:00:00 (CET)Rostock-Warnemünde, Germany (10170): wind direction: 24.10.2020 11:00:00 - 30.10.2020 11:00:00 (CET)Rostock-Warnemünde, Germany (10170): reduced air pressure: 24.10.2020 11:00:00 - 30.10.2020 11:00:00 (CET)Rostock-Warnemünde, Germany (10170): visibility: 24.10.2020 11:00:00 - 30.10.2020 11:00:00 (CET)Rostock-Warnemünde, Germany (10170): sunshine duration: 24.10.2020 11:00:00 - 30.10.2020 11:00:00 (CET)Rostock-Warnemünde, Germany (10170): precipitation: 24.10.2020 11:00:00 - 30.10.2020 11:00:00 (CET)
Date & Time tt [°C] td [°C] tt 5cm [°C] tt -5cm [°C] tt -20cm [°C] tt -100cm [°C] ff [km/h] ff [kn] fx [km/h] fx [kn] dd ppp [hPa] vv [km] sd [min] rr [mm]
30.10.2020 11:00:00 10,3 9,8 10,2 9,9 9,2 12,0 11 6 23 12 S 1011,4 7 0 1,4
30.10.2020 10:00:00 9,7 9,2 9,5 9,3 9,1 12,0 11 6 23 13 S 1011,3 2,9 0 1,1
30.10.2020 09:00:00 9,3 8,8 9,1 8,8 9,0 12,0 10 5 27 15 SSE 1011,6 1,4 0 1,1
30.10.2020 08:00:00 9,1 8,6 8,7 8,4 8,9 12,0 10 6 30 16 S 1011,5 6 0 0,7
30.10.2020 07:00:00 8,9 8,2 8,5 8,2 8,9 12,0 9 5 27 15 SSE 1011,8 11 0 0,5
30.10.2020 06:00:00 8,8 8,1 8,3 7,9 8,8 12,0 12 7 25 13 S 1012,1 10 0 0,5
30.10.2020 05:00:00 8,4 7,6 7,9 7,5 8,8 12,1 10 5 21 11 SSE 1012,4 12 0 0,4
30.10.2020 04:00:00 8,1 7,1 7,5 7,2 8,8 12,1 8 5 18 10 S 1012,8 15 0 0,0
30.10.2020 03:00:00 8,2 6,8 7,4 7,0 8,9 12,1 10 5 22 12 S 1013,3 20 0 0,0
30.10.2020 02:00:00 8,0 6,5 7,2 6,4 9,1 12,1 9 5 19 11 S 1013,8 22 0 0,0
30.10.2020 01:00:00 7,9 6,3 6,7 6,1 9,3 12,1 13 7 21 11 SSW 1014,0 23 0 0,0
30.10.2020 00:00:00 7,8 6,2 6,1 6,6 9,5 12,1 11 6 24 13 SSW 1014,2 24 0 0,0
29.10.2020 23:00:00 8,9 6,8 7,4 7,3 9,6 12,1 13 7 24 13 SW 1014,3 28 0 0,0
29.10.2020 22:00:00 9,6 7,7 8,8 8,4 9,7 12,1 14 7 32 18 SW 1014,2 26 0 0,0
29.10.2020 21:00:00 10,1 7,7 9,0 8,3 9,8 12,1 14 8 33 18 WSW 1013,9 32 0 0,0
29.10.2020 20:00:00 10,3 7,0 9,2 8,3 9,9 12,1 16 8 36 20 WSW 1013,5 40 0 0,0
29.10.2020 19:00:00 10,5 7,2 10,0 8,7 10,0 12,1 16 9 33 18 WSW 1012,8 42 0 0,0
29.10.2020 18:00:00 10,7 7,1 10,1 8,4 10,1 12,1 19 10 33 18 WSW 1012,3 43 0 0,0
29.10.2020 17:00:00 10,3 7,0 8,9 8,5 10,3 12,1 17 9 38 20 WSW 1011,6 46 10 0,0
29.10.2020 16:00:00 10,8 6,7 10,2 9,7 10,4 12,2 21 11 44 24 WSW 1011,0 43 50 0,0
29.10.2020 15:00:00 11,3 6,8 11,2 10,6 10,3 12,2 23 12 44 24 W 1010,3 42 48 0,0
29.10.2020 14:00:00 11,3 6,8 11,9 11,1 10,1 12,2 24 13 49 27 WSW 1009,6 43 18 0,0
29.10.2020 13:00:00 10,9 6,2 11,2 11,2 9,9 12,2 23 12 44 24 W 1008,9 46 25 0,0
29.10.2020 12:00:00 10,4 6,0 11,1 11,2 9,6 12,2 22 12 43 23 WSW 1008,4 61 28 0,0
29.10.2020 11:00:00 10,2 6,1 10,2 10,2 9,4 12,2 23 12 43 23 WSW 1007,5 55 1 0,0
29.10.2020 10:00:00 9,6 5,8 9,1 9,2 9,3 12,2 19 11 38 21 WSW 1006,6 59 1 0,0
29.10.2020 09:00:00 9,4 6,5 8,5 8,4 9,3 12,2 17 9 37 20 SW 1005,7 47 13 0,0
29.10.2020 08:00:00 9,2 7,6 8,3 8,2 9,3 12,2 18 10 30 16 SSW 1005,0 48 0 0,0
29.10.2020 07:00:00 9,2 7,8 8,1 8,2 9,3 12,2 13 7 32 17 SW 1004,2 35 0 0,4
29.10.2020 06:00:00 9,2 8,1 8,6 8,3 9,2 12,2 15 8 30 16 SSW 1004,0 23 0 0,2
29.10.2020 05:00:00 9,3 8,1 8,6 8,2 9,2 12,2 11 6 27 14 S 1004,1 12 0 0,8
29.10.2020 04:00:00 9,3 7,9 8,4 8,0 9,2 12,2 13 7 25 14 S 1004,2 12 0 1,3
29.10.2020 03:00:00 9,6 6,7 8,7 7,4 9,2 12,2 11 6 27 15 S 1004,4 33 0 0,0
29.10.2020 02:00:00 9,3 6,5 8,4 7,1 9,4 12,3 13 7 27 15 S 1005,0 59 0 0,0
29.10.2020 01:00:00 9,3 6,4 8,3 6,9 9,5 12,3 10 5 22 12 S 1005,6 54 0 0,0
29.10.2020 00:00:00 9,6 6,5 8,2 7,1 9,7 12,3 13 7 23 12 S 1006,0 49 0 0,0
28.10.2020 23:00:00 9,8 6,9 8,8 7,4 9,8 12,3 11 6 24 13 S 1006,2 46 0 0,0
28.10.2020 22:00:00 10,0 7,1 8,6 7,4 10,0 12,3 10 5 22 12 S 1006,7 40 0 0,0
28.10.2020 21:00:00 10,3 7,5 8,9 7,9 10,2 12,3 9 5 19 11 S 1007,1 43 0 0,0
28.10.2020 20:00:00 10,7 7,7 8,8 8,3 10,4 12,3 10 6 30 16 S 1007,1 38 0 0,0
28.10.2020 19:00:00 11,2 7,9 10,0 8,3 10,6 12,3 9 5 19 10 S 1007,1 47 0 0,0
28.10.2020 18:00:00 11,4 8,0 9,5 8,6 10,8 12,3 9 5 18 10 S 1007,0 40 0 0,0
28.10.2020 17:00:00 12,4 7,9 10,4 9,5 11,0 12,3 9 5 22 12 S 1006,7 44 0 0,0
28.10.2020 16:00:00 13,2 7,5 11,7 10,8 11,0 12,4 10 5 26 14 S 1006,5 44 23 0,0
28.10.2020 15:00:00 13,5 7,1 13,1 12,0 10,9 12,4 15 8 39 21 S 1006,5 48 22 0,0
28.10.2020 14:00:00 13,7 7,9 13,8 12,8 10,6 12,4 16 8 33 18 SSW 1006,2 46 36 0,0
28.10.2020 13:00:00 13,5 6,8 13,7 13,2 10,2 12,4 18 10 39 21 SSW 1006,0 46 43 0,0
28.10.2020 12:00:00 12,8 8,0 13,1 12,3 9,8 12,4 17 9 31 17 SW 1006,1 45 27 0,0
28.10.2020 11:00:00 12,6 8,5 12,9 11,2 9,5 12,4 18 10 34 18 SW 1006,0 43 54 0,0
28.10.2020 10:00:00 11,8 8,5 12,2 9,4 9,4 12,4 14 8 29 16 SSW 1005,8 51 38 0,0
28.10.2020 09:00:00 9,9 8,2 8,9 8,5 9,3 12,4 17 9 39 21 SSW 1005,0 51 0 0,0
28.10.2020 08:00:00 9,6 8,1 8,9 8,6 9,3 12,4 19 10 40 21 SSW 1004,1 38 0 0,0
28.10.2020 07:00:00 9,1 7,9 8,5 8,3 9,2 12,5 19 10 42 23 S 1003,3 32 0 0,2
28.10.2020 06:00:00 9,0 7,6 8,3 8,2 9,2 12,5 21 11 42 23 S 1003,0 8 0 0,1
28.10.2020 05:00:00 8,9 7,1 8,1 8,0 9,2 12,5 21 11 45 24 S 1002,8 8 0 0,2
28.10.2020 04:00:00 9,5 6,0 9,1 7,8 9,2 12,5 21 12 41 22 S 1002,7 32 0 0,0
28.10.2020 03:00:00 9,3 5,7 8,7 7,5 9,2 12,5 19 10 41 22 S 1003,3 29 0 0,0
28.10.2020 02:00:00 9,3 5,8 8,4 7,0 9,3 12,5 16 9 40 22 S 1003,6 57 0 0,0
28.10.2020 01:00:00 9,3 5,7 8,2 6,9 9,5 12,5 16 8 34 19 S 1004,0 60 0 0,0
28.10.2020 00:00:00 9,5 5,7 8,4 7,1 9,6 12,5 15 8 31 17 S 1004,5 60 0 0,0
27.10.2020 23:00:00 10,3 6,1 9,2 7,9 9,7 12,5 18 10 33 18 S 1004,8 56 0 0,0
27.10.2020 22:00:00 10,5 6,4 9,6 8,0 9,7 12,5 14 8 31 17 S 1005,2 56 0 0,0
27.10.2020 21:00:00 9,8 6,3 8,7 7,5 9,9 12,5 16 8 34 18 S 1005,1 48 0 0,0
27.10.2020 20:00:00 9,7 6,0 8,3 7,2 10,1 12,6 13 7 24 13 S 1005,3 50 0 0,0
27.10.2020 19:00:00 9,8 6,2 8,2 7,6 10,3 12,6 12 7 32 17 S 1005,4 48 0 0,0
27.10.2020 18:00:00 10,4 6,3 9,0 8,2 10,5 12,6 15 8 32 17 S 1005,5 46 0 0,0
27.10.2020 17:00:00 11,3 6,8 10,4 9,2 10,6 12,6 13 7 27 14 S 1005,2 46 2 0,0
27.10.2020 16:00:00 11,5 7,3 10,8 10,1 10,6 12,6 13 7 29 16 S 1005,1 43 16 0,0
27.10.2020 15:00:00 11,7 7,0 11,3 10,9 10,5 12,6 16 8 34 18 S 1005,1 49 32 0,0
27.10.2020 14:00:00 12,2 7,0 12,4 11,9 10,2 12,6 15 8 37 20 S 1005,2 46 24 0,0
27.10.2020 13:00:00 11,4 7,1 11,2 11,6 9,8 12,6 21 12 37 20 SSW 1005,3 44 19 0,0
27.10.2020 12:00:00 10,6 6,9 10,6 10,0 9,6 12,6 13 7 29 15 S 1005,4 34 38 0,0
27.10.2020 11:00:00 10,6 6,8 10,9 9,6 9,4 12,6 11 6 32 17 S 1005,2 39 35 0,0
27.10.2020 10:00:00 9,2 6,5 8,7 8,3 9,3 12,6 10 6 29 16 S 1005,1 33 1 0,0
27.10.2020 09:00:00 8,5 6,1 7,9 7,6 9,3 12,6 12 6 26 14 S 1005,0 37 0 0,0
27.10.2020 08:00:00 7,7 5,7 6,7 6,2 9,4 12,6 9 5 22 12 S 1004,8 37 0 0,0
27.10.2020 07:00:00 7,5 5,6 6,0 6,0 9,6 12,6 11 6 23 13 S 1004,5 43 0 0,0
27.10.2020 06:00:00 7,7 6,0 6,2 6,3 9,9 12,6 13 7 30 16 S 1003,9 43 0 0,0
27.10.2020 05:00:00 7,9 6,1 6,4 6,6 10,1 12,6 11 6 20 11 S 1003,4 44 0 0,0
27.10.2020 04:00:00 8,4 6,4 6,9 7,1 10,3 12,6 9 5 19 11 S 1003,0 33 0 0,0
27.10.2020 03:00:00 8,7 6,7 7,3 7,5 10,5 12,6 10 5 24 13 S 1003,0 43 0 0,0
27.10.2020 02:00:00 9,0 6,9 7,6 7,7 10,7 12,6 12 7 22 12 S 1003,1 43 0 0,0
27.10.2020 01:00:00 9,1 7,3 7,6 8,0 10,9 12,6 11 6 21 12 S 1003,4 33 0 0,0
27.10.2020 00:00:00 9,4 8,0 8,2 8,6 11,1 12,6 11 6 20 11 S 1003,3 30 0 0,0
26.10.2020 23:00:00 9,8 8,5 8,7 9,1 11,2 12,6 12 6 22 12 SSW 1003,3 28 0 0,0
26.10.2020 22:00:00 10,1 9,0 9,0 9,4 11,4 12,6 10 5 22 12 SSW 1002,7 26 0 0,0
26.10.2020 21:00:00 10,4 9,5 9,6 9,8 11,5 12,6 9 5 21 12 S 1002,3 21 0 0,0
26.10.2020 20:00:00 10,7 9,8 9,8 10,1 11,6 12,6 8 5 21 12 S 1002,2 26 0 0,0
26.10.2020 19:00:00 10,9 10,0 10,2 10,5 11,7 12,6 10 6 19 10 S 1002,4 30 0 0,0
26.10.2020 18:00:00 11,1 10,2 10,5 10,7 11,8 12,6 10 6 23 12 S 1002,3 30 0 0,3
26.10.2020 17:00:00 11,3 10,2 10,7 11,0 11,8 12,6 12 7 20 11 SE 1001,5 32 0 0,1
26.10.2020 16:00:00 11,4 10,7 10,9 11,4 11,8 12,6 7 4 15 8 S 1002,1 18 0 0,7
26.10.2020 15:00:00 11,6 10,4 10,9 11,6 11,8 12,6 7 4 15 8 S 1001,7 27 0 0,4
26.10.2020 14:00:00 11,9 10,4 11,3 12,3 11,7 12,6 8 4 19 10 S 1001,3 33 0 0,3
26.10.2020 13:00:00 11,7 10,4 11,2 11,6 11,6 12,6 9 5 23 12 S 1002,1 19 0 0,4
26.10.2020 12:00:00 11,9 9,8 11,1 11,7 11,6 12,6 11 6 18 10 SSE 1001,7 25 0 0,1
26.10.2020 11:00:00 11,8 9,8 11,2 11,4 11,5 12,6 7 4 20 11 S 1001,9 36 0 0,0
26.10.2020 10:00:00 11,9 9,9 11,4 11,4 11,4 12,6 10 5 23 12 S 1002,5 42 0 0,0
26.10.2020 09:00:00 11,5 9,9 11,1 10,8 11,4 12,6 9 5 21 12 S 1001,9 43 0 0,0
26.10.2020 08:00:00 11,1 9,6 10,4 10,1 11,5 12,6 7 4 16 9 S 1002,1 43 0 0,0
26.10.2020 07:00:00 10,8 9,6 9,9 9,6 11,6 12,6 9 5 18 10 S 1002,0 36 0 0,0
26.10.2020 06:00:00 10,8 9,6 9,8 9,6 11,8 12,6 9 5 18 10 SSE 1001,8 39 0 0,0
26.10.2020 05:00:00 10,9 9,8 9,7 9,8 12,0 12,6 8 4 14 8 S 1001,7 42 0 0,0
26.10.2020 04:00:00 11,3 10,0 10,3 10,6 12,1 12,6 8 5 21 11 S 1001,7 46 0 0,0
26.10.2020 03:00:00 11,6 10,4 10,8 10,9 12,2 12,6 10 5 16 9 S 1002,2 53 0 0,0
26.10.2020 02:00:00 11,7 10,5 10,9 10,8 12,3 12,6 10 5 17 9 S 1002,1 44 0 0,0
26.10.2020 01:00:00 12,1 10,9 11,2 11,5 12,4 12,6 7 4 21 11 S 1002,1 43 0 0,0
26.10.2020 00:00:00 12,1 11,2 11,5 11,7 12,5 12,6 9 5 18 10 S 1002,4 48 0 0,0
25.10.2020 23:00:00 12,2 11,2 11,6 11,7 12,6 12,6 9 5 23 13 S 1002,4 37 0 0,9
25.10.2020 22:00:00 12,4 11,4 11,7 12,0 12,7 12,6 12 7 24 13 S 1002,9 17 0 2,2
25.10.2020 21:00:00 12,8 11,5 12,0 12,1 12,8 12,5 12 7 25 13 S 1002,9 10 0 1,0
25.10.2020 20:00:00 13,4 11,2 12,2 12,3 13,0 12,5 10 5 22 12 S 1002,8 29 0 0,4
25.10.2020 19:00:00 13,6 11,0 12,2 12,5 13,1 12,5 10 5 20 11 S 1003,0 37 0 0,4
25.10.2020 18:00:00 13,9 11,0 12,4 12,8 13,2 12,5 9 5 19 10 S 1003,1 49 0 0,3
25.10.2020 17:00:00 14,4 10,8 13,0 13,4 13,3 12,5 9 5 21 12 S 1003,4 39 0 0,0
25.10.2020 16:00:00 15,1 10,5 14,7 14,2 13,3 12,5 9 5 32 17 S 1003,2 65 0 0,0
25.10.2020 15:00:00 15,5 10,2 15,2 15,2 13,1 12,5 13 7 34 19 S 1003,4 64 0 0,0
25.10.2020 14:00:00 16,0 10,1 16,3 16,0 12,8 12,5 18 10 35 19 S 1003,1 55 7 0,0
25.10.2020 13:00:00 15,9 10,0 16,3 15,7 12,5 12,5 17 9 41 22 S 1003,9 58 9 0,0
25.10.2020 12:00:00 15,1 9,8 15,5 15,0 12,2 12,5 16 9 40 22 S 1004,1 62 21 0,0
25.10.2020 11:00:00 14,3 9,4 15,0 13,6 12,0 12,5 16 9 42 23 S 1004,4 60 11 0,0
25.10.2020 10:00:00 14,1 9,1 14,3 13,3 11,9 12,5 19 11 41 22 S 1004,3 71 44 0,0
25.10.2020 09:00:00 13,4 9,0 13,3 12,2 11,8 12,5 16 9 36 19 S 1004,8 61 1 0,0
25.10.2020 08:00:00 13,2 9,3 12,7 11,7 11,8 12,5 13 7 31 17 SSE 1005,0 62 0 0,0
25.10.2020 07:00:00 13,8 9,5 13,3 11,8 11,8 12,5 14 8 31 17 S 1005,5 62 0 0,0
25.10.2020 06:00:00 13,8 9,7 13,3 11,8 11,8 12,5 14 7 31 17 S 1005,7 69 0 0,0
25.10.2020 05:00:00 13,9 9,6 13,4 11,8 11,8 12,5 16 8 34 18 S 1006,0 61 0 0,0
25.10.2020 04:00:00 13,9 9,6 13,4 11,6 11,7 12,5 15 8 36 19 S 1006,2 67 0 0,0
25.10.2020 03:00:00 14,0 9,7 13,5 11,5 11,7 12,5 15 8 32 17 S 1006,9 53 0 0,0
25.10.2020 02:00:00 14,0 9,8 13,4 11,3 11,8 12,5 15 8 33 18 S 1007,5 53 0 0,0
25.10.2020 01:00:00 - - - - - - - - - - - - - - -
25.10.2020 00:00:00 13,6 10,3 13,1 11,3 11,8 12,5 15 8 29 16 S 1008,3 50 0 0,0
24.10.2020 23:00:00 13,5 10,5 13,0 11,1 11,9 12,5 12 7 24 13 S 1008,9 45 0 0,0
24.10.2020 22:00:00 13,0 10,5 12,0 10,8 12,1 12,5 11 6 27 15 S 1009,2 43 0 0,0
24.10.2020 21:00:00 13,0 11,1 11,8 11,4 12,2 12,5 12 7 24 13 S 1009,6 36 0 0,0
24.10.2020 20:00:00 13,1 11,1 12,3 11,6 12,3 12,5 10 6 23 13 S 1009,6 37 0 0,0
24.10.2020 19:00:00 12,9 11,1 11,9 11,7 12,4 12,5 13 7 25 14 SSW 1010,0 33 0 0,0
24.10.2020 18:00:00 12,8 11,0 11,8 12,4 12,5 12,5 13 7 26 14 SSW 1010,1 35 0 0,0
24.10.2020 17:00:00 13,9 8,7 13,2 12,8 12,5 12,5 10 6 20 11 S 1010,1 47 0 0,0
24.10.2020 16:00:00 14,2 7,9 14,0 13,8 12,4 12,5 10 6 29 15 SW 1010,4 51 7 0,0
24.10.2020 15:00:00 14,6 7,3 14,1 14,6 12,2 12,5 13 7 37 20 WSW 1010,3 49 47 0,0
24.10.2020 14:00:00 14,9 7,2 15,8 15,0 11,9 12,5 16 9 36 19 WSW 1010,2 56 35 0,0
24.10.2020 13:00:00 14,6 9,0 15,9 14,5 11,6 12,5 19 11 42 23 WSW 1010,1 40 12 0,0
24.10.2020 12:00:00 13,8 9,7 13,7 13,1 11,3 12,5 16 9 34 18 WSW 1010,2 36 1 0,0
24.10.2020 11:00:00 13,3 10,3 13,7 12,4 11,1 12,5 16 9 35 19 SW 1009,9 26 0 0,0

tt = temperature
td = dewpoint
tt 5cm = temperature 5cm
tt -5cm = temperature -5cm
tt -20cm = temperature -20cm
tt -100cm = temperature -100cm
ff = wind speed
fx = gusts
dd = wind direction
ppp = reduced air pressure
vv = visibility
sd = sunshine duration
rr = precipitation

Next stations